Location: Buffign�court
(47.8126°N, 6.0176°E)
Time: 01:17:31
(UTC+00:00)

Cosmos 1867 - Pass Details

Date: 16 June 2021
Orbit: 773 x 802 km, 65.0° (Epoch: 25 July)

Event Time Altitude Azimuth Distance (km) Brightness Sun altitude
Rises 21:39:57 0° 323° (NW) 3,321 8.6 -14.1°
Reaches altitude 10° 21:42:29 10° 330° (NNW) 2,389 7.5 -14.3°
Maximum altitude 21:47:48 48° 44° (NE) 1,051 4.3 -14.7°
Enters shadow 21:52:14 15° 115° (ESE) 2,073 5.3 -15.0°
